Regional Weather Roundup
Issued by NWS Nashville, TN

Home | Current Version | Previous Version | Text Only | Print | Product List | Glossary On
Versions: 1 2 3 4 5 6 7 8 9 10 11 12 13 14 15 16 17 18 19 20 21 22 23 24 25 26 27 28 29 30 31 32 33 34 35 36 37 38 39 40 41 42 43 44 45 46 47 48 49 50
000
ASUS44 KOHX 300315
RWROHX
MIDDLE TENNESSEE HOURLY WEATHER ROUNDUP
NATIONAL WEATHER SERVICE NASHVILLE TN
900 PM CST THU JAN 29 2015

NOTE: "FAIR" INDICATES FEW OR NO CLOUDS BELOW 12,000 FEET WITH
NO SIGNIFICANT WEATHER AND/OR OBSTRUCTIONS TO VISIBILITY.

* THESE REPORTS ARE NOT UNDER NWS QUALITY CONTROL AND MAY NOT
  REPORT WEATHER SUCH AS PRECIPITATION AND FOG.


TNZ005>011-023>034-057-059-062>066-078-080-300400
...NORTHERN MIDDLE TENNESSEE...

CITY           SKY/WX    TMP DP  RH WIND       PRES   REMARKS
CLARKSVILLE    CLOUDY    40  34  79 NW9       30.32R WCI  34
CROSSVILLE     CLOUDY    36  32  85 NW14      30.19R FOG     WCI  27
GALLATIN       CLOUDY    39  32  76 NW10      30.30R WCI  32
DICKSON        CLOUDY    39  30  70 N10       30.30R WCI  32
LEBANON        CLOUDY    39  31  73 NW10      30.27R WCI  32
LIVINGSTON     CLOUDY    38  32  79 NW9       30.22R WCI  31
NASHVILLE      CLOUDY    41  31  67 N13G22    30.30R
WEST NASHVILLE CLOUDY    39  32  75 NW10      30.31R WCI  32
PORTLAND       CLOUDY    36  30  80 NW10      30.27R WCI  28
SMYRNA         CLOUDY    42  32  68 N15       30.31R
SPARTA         CLOUDY    39  34  81 N9        30.23R WCI  33
$$
TNZ056-058-060-061-075>077-079-093>097-300400
...SOUTHERN MIDDLE TENNESSEE...

CITY           SKY/WX    TMP DP  RH WIND       PRES   REMARKS
COLUMBIA       CLOUDY    43  34  70 N8        30.29R
LEWISBURG      CLOUDY    42  31  65 N9        30.29R
MCMINNVILLE    CLOUDY    39  32  75 N12       30.25R WCI  32
MURFREESBORO   CLOUDY    42  31  65 NW13      30.28R
SHELBYVILLE    CLOUDY    41  34  75 N14       30.29R
TULLAHOMA      CLOUDY    39  30  70 N15       30.26R WCI  31
WINCHESTER     CLOUDY    39  34  81 N10       30.26R WCI  32
$$


...KEY TO REMARKS...
VSB - VISIBILITY IN MILES
WCI - WIND CHILL INDEX
HX  - HEAT INDEX



USA.gov is the U.S. government's official web portal to all federal, state and local government web resources and services.